Flag for China Weather past 2 weeks in Changchun, Jilin, China

Now
0 °F

Ice fog.


Feels Like: -17 °F
Forecast: -4 / 22 °F
Wind: 10 mph from Southeast

Location: Changchun Airport

Current Time: Dec 18, 2014 at 3:56:54 PM

Latest Report: Dec 18, 2014 at 3:00 PM


Visibility: 3 mi

Pressure: 30.42 "Hg

Humidity: 54%

Dew point: -13 °F

Location of ChangchunLocation

Historic Weather in Changchun — Graph

°F

Changchun temperature yesterday

Maximum temperature yesterday: -2 °F (at 1:00 PM)
Minimum temperature yesterday: -22 °F (at 6:00 AM)
Average temperature yesterday: -12 °F

Past Weeks' High & Low Weather Summary

 TemperatureHumidityPressure
High28 °F (Dec 10, 12:00 PM)93% (Dec 10, 8:00 AM)30.60 "Hg (Dec 10, 8:00 AM)
Low-22 °F (Dec 17, 6:00 AM)39% (Dec 3, 6:00 PM)29.89 "Hg (Dec 3, 2:00 PM)
Average3 °F68%30.25 "Hg
* Reported Dec 3 2:00 PM — Dec 18 2:00 PM, Changchun, Weather by CustomWeather, © 2014

Note: Actual official high and low records may vary slightly from our data, if they occured in-between our weather recording intervals... More about our weather records

Advertising

Changchun weather history for previous 24 hours

 ConditionsComfort  
Time TempWeatherWind HumidityBarometerVisibility
2:00 PM
Dec 18
0 °FIce fog.10 mph54%30.45 "Hg3 mi
1:00 PM0 °FIce fog.10 mph54%30.45 "Hg3 mi
12:00 PM-4 °FIce fog.10 mph59%30.51 "Hg3 mi
11:00 AM-6 °FIce fog.8 mph64%30.54 "Hg2 mi
10:00 AM-9 °FIce fog.6 mph64%30.57 "Hg2 mi
8:00 AM-18 °FIce fog.6 mph69%30.57 "Hg2 mi
7:00 AM-20 °FIce fog.3 mph68%30.54 "Hg2 mi
6:00 AM-20 °FIce fog.3 mph68%30.57 "Hg3 mi
5:00 AM-20 °FIce fog.3 mph62%30.54 "Hg2 mi
4:00 AM-18 °FLight snow. Ice fog.6 mph62%30.54 "Hg2 mi
3:00 AM-22 °FClear.3 mph68%30.54 "Hg10 mi
2:00 AM-20 °FClear.3 mph68%30.54 "Hg10 mi
1:00 AM-17 °FClear.3 mph63%30.51 "Hg10 mi
12:00 AM-17 °FIce fog.3 mph69%30.51 "Hg3 mi
11:00 PM
Dec 17
-17 °FIce fog.3 mph69%30.48 "Hg3 mi
10:00 PM-13 °FPassing clouds.3 mph69%30.48 "Hg4 mi
9:00 PM-11 °FIce fog.6 mph70%30.48 "Hg3 mi
8:00 PM-11 °FIce fog.6 mph70%30.45 "Hg2 mi
7:00 PM-11 °FIce fog.6 mph76%30.45 "Hg2 mi
6:00 PM-9 °FIce fog.3 mph70%30.42 "Hg2 mi
5:00 PM-9 °FIce fog.6 mph77%30.39 "Hg2 mi
4:00 PM-8 °FLight snow. Ice fog.3 mph70%30.36 "Hg2 mi
3:00 PM-2 °FIce fog.1 mph71%30.33 "Hg3 mi
Weather by CustomWeather, © 2014

See weather overviewHow to use our weather pages